Location: Newark
(48.9886°N, 1.2358°E)
Time: 14:19:41
(UTC+00:00)

ISS - Visible Passes

Search period start: 19 October 2019 00:00
Search period end: 29 October 2019 00:00
Orbit: 411 x 421 km, 51.6° (Epoch: 19 October)

Date Brightness Start Highest point End Pass type
(mag) Time Alt. Az. Time Alt. Az. Time Alt. Az.
23 Oct -0.5 05:37:53 10° SSE 05:39:10 12° SE 05:40:27 10° ESE visible
25 Oct -1.6 05:35:30 10° SSW 05:38:21 25° SE 05:41:11 10° E visible
26 Oct -1.1 04:47:39 10° S 04:49:55 17° SE 04:52:11 10° E visible
27 Oct -0.7 04:00:52 10° SE 04:01:32 11° SE 04:02:28 10° ESE visible
27 Oct -3.0 05:34:22 10° SW 05:37:39 52° SSE 05:40:57 10° ENE visible
28 Oct -2.4 04:47:38 23° SSW 04:49:06 35° SSE 04:52:14 10° E visible
